EHI
0 0 0 0 0 0 0 0 0 0 0 0 0 0 0 0 0 0 0 0 0 0 0 0 0 0 0 0 0 0 0 0 0 0 0 0 0 0 0 0 0 0 0
0 0 0 0 0 0 0 0 0 0 0 0 0 0 0 0 0 0 0 0 0 0 0 0 0 0 0 0 0 0 0 0 0 0 0 0 0 0 0 0 0 0 0
0 0 0 0 0 0 0 0 0 0 0 0 0 0 0 0 0 0 0 0 0 0 0 0 0 0 0 0 0 0 0 0 0 0 0 0 0 0 0 0 0 0 0
0 0 0 0 0 0 0 0 0 0 0 0 0 0 0 0 0 0 0 0 0 0 0 0 0 0 0 0 0 0 0 0 0 0 0 0 0 0 0 0 0 0 0
0 0 0 0 0 0 0 0 0 0 0 0 0 0 0 0 0 0 0 0 0 0 0 0 0 0 0 0 0 0 0 0 0 0 0 0 0 0 0 0 0 0 0
0 0 0 0 0 0 0 0 0 0 0 0 0 0 0 0 0 0 0 0 0 0 0 0 0 0 0 0 0 0 0 0 0 0 0 0 0 0 0 0 0 0 0
0 0 0 0 0 0 0 0 0 0 0 0 0 0 0 0 0 0 0 0 0 0 0 0 0 0 0 0 0 0 0 0 0 0 0 0 0 0 0 0 0 0 0
0 0 0 0 0 0 0 0 0 0 0 0 0 0 0 0 0 0 0 0 0 0 0 0 0 0 0 0 0 0 0 0 0 0 0 0 0 0 0 0 0 0 0
0 0 0 0 0 0 0 0 0 0 0 0 0 0 0 0 0 0 0 0 0 0 0 0 0 0 0 0 0 0 0 0 0 0 0 0 0 0 0 0 0 0 0
0 0 0 0 0 0 0 0 0 0 0 0 0 0 0 0 0 0 0 0 0 0 0 0 0 0 0 0 0 0 0 0 0 0 0 0 0 0 0 0 0 0 0
0 0 0 0 0 0 0 0 0 0 0 0 0 0 0 0 0 0 0 0 0 0 0 0 0 0 0 0 0 0 0 0 0 0 0 0 0 0 0 0 0 0 0
0 0 0 0 0 0 0 0 0 0 0 0 0 0 0 0 0 0 0 0 0 0 0 0 0 0 0 0 0 0 0 0 0 0 0 0 0 0 0 0 0 0 0
0 0 0 0 0 0 0 0 0 0 0 0 0 0 0 0 0 0 0 0 0 0 0 0 0 0 0 0 0 0 0 0 0 0 0 0 0 0 0 0 0 0 0
0 0 0 0 0 0 0 0 0 0 0 0 0 0 0 0 0 0 0 0 0 0 0 0 0 0 0 0 0 0 0 0 0 0 0 0 0 0 0 0 0 0 0
0 0 0 0 0 0 0 0 0 0 0 0 0 0 0 0 0 0 0 0 0 0 0 0 0 0 0 0 0 0 0 0 0 0 0 0 0 0 0 0 0 0 0
0 0 0 0 0 0 0 0 0 0 0 0 0 0 0 0 0 0 0 0 0 0 0 0 0 0 0 0 0 0 0 0 0 0 0 0 0 0 0 0 0 0 0
0 0 0 0 0 0 0 0 0 0 0 0 0 0 0 0 0 0 0 0 0 0 0 0 0 0 0 0 0 0 0 0 0 0 0 0 0 0 0 0 0 0 0
0 0 0 0 0 0 0 0 0 0 0 0 0 0 0 0 0 0 0 0 0 0 0 0 0 0 0 0 0 0 0 0 0 0 0 0 0 0 0 0 0 0 0
0 0 0 0 0 0 0 0 0 0 0 0 0 0 0 0 0 0 0 0 0 0 0 0 0 0 0 0 0 0 0 0 0 0 0 0 0 0 0 0 0 0 0
0 0 0 0 0 0 0 0 0 0 0 0 0 0 0 0 0 0 0 0 0 0 0 0 0 0 0 0 0 0 0 0 0 0 0 0 0 0 0 0 0 0 0
0 0 0 0 0 0 0 0 0 0 0 0 0 0 0 0 0 0 0 0 0 0 0 0 0 0 0 0 0 0 0 0 0 0 0 0 0 0 0 0 0 0 0
0 0 0 0 0 0 0 0 0 0 0 0 0 0 0 0 0 0 0 0 0 0 0 0 0 0 0 0 0 0 0 0 0 0 0 0 0 0 0 0 0 0 0
0 0 0 0 0 0 0 0 0 0 0 0 0 0 0 0 0 0 0 0 0 0 0 0 0 0 0 0 0 0 0 0 0 0 0 0 0 0 0 0 0 0 0
0 0 0 0 0 0 0 0 0 0 0 0 0 0 0 0 0 0 0 0 0 0 0 0 0 0 0 0 0 0 0 0 0 0 0 0 0 0 0 0 0 0 0
0 0 0 0 0 0 0 0 0 0 0 0 0 0 0 0 0 0 0 0 0 0 0 0 0 0 0 0 0 0 0 0 0 0 0 0 0 0 0 0 0 0 0
0 0 0 0 0 0 0 0 0 0 0 0 0 0 0 0 0 0 0 0 0 0 0 0 0 0 0 0 0 0 0 0 0 0 0 0 0 0 0 0 0 0 0
Wind_Speed
9 13 19 18 17 15 13 12 11 11 10 11 11 12 12 12 12 13 13 13 13 13 13 14 14 15 15 15 16 16 16 16 16 16 17 16 16 16 16 16 15 11 17
13 15 20 19 17 16 14 13 12 11 10 10 11 11 11 11 12 12 12 12 12 13 13 13 14 14 14 14 14 14 14 14 14 14 15 14 15 16 16 16 15 10 16
15 16 18 20 18 16 15 13 12 11 10 10 11 10 10 11 11 11 11 11 11 12 12 12 13 13 13 13 13 13 12 12 11 13 13 7 9 14 15 15 14 14 14
15 16 15 20 19 17 15 14 13 12 11 11 11 10 10 10 11 10 10 10 10 11 11 11 11 11 12 12 12 11 11 10 11 12 7 7 6 12 13 13 13 13 13
13 14 15 21 19 17 16 15 14 12 11 10 10 10 10 10 10 9 9 9 9 9 10 10 10 10 10 10 10 10 9 9 10 9 6 6 5 10 11 11 12 11 11
12 13 16 21 19 18 16 15 14 13 12 11 10 10 9 9 9 9 8 8 8 8 8 9 9 9 9 9 9 9 8 9 7 5 6 6 5 8 10 10 9 10 10
11 13 16 20 19 18 16 15 14 13 12 11 10 9 9 9 9 8 8 7 7 6 7 7 7 7 7 8 8 7 8 9 5 4 4 5 5 7 8 8 8 8 8
11 13 16 20 19 18 17 16 15 13 12 11 10 9 9 9 8 8 7 6 5 5 5 5 5 5 6 6 6 6 6 8 6 4 4 4 5 6 6 6 6 6 6
10 12 14 12 14 16 16 16 15 14 13 12 10 10 9 9 8 8 7 6 5 4 3 3 3 3 3 3 4 4 5 7 5 3 2 3 3 4 4 3 4 4 4
8 10 13 11 10 9 10 14 14 14 13 12 11 9 9 8 7 7 7 6 5 4 3 2 1 0 1 1 1 2 4 6 4 3 0 1 1 4 4 3 3 4 4
7 8 12 12 10 9 8 11 11 12 12 11 9 10 8 4 5 5 7 8 7 5 4 4 3 3 3 4 5 5 4 3 4 2 1 2 3 6 7 6 6 6 6
7 7 9 12 11 9 8 8 6 6 6 6 5 7 5 4 4 5 8 9 8 7 6 7 7 6 5 4 6 7 3 5 4 3 3 8 8 9 10 10 10 9 9
9 8 8 10 11 10 6 6 4 4 4 5 6 7 5 4 3 3 3 4 4 6 4 6 5 4 4 4 3 4 5 3 2 3 4 10 11 12 13 13 13 13 13
10 9 7 8 10 9 7 5 5 4 4 4 4 6 4 3 3 3 3 4 4 3 4 4 3 5 5 5 5 5 5 4 3 3 5 12 14 15 16 16 16 16 16
8 9 8 7 9 8 7 5 5 5 5 5 4 4 4 3 3 3 3 3 3 3 3 4 4 5 5 5 5 5 6 6 6 5 5 13 16 17 18 19 19 19 19
7 9 7 7 8 8 6 5 4 4 5 5 5 5 5 4 4 4 3 3 3 3 3 3 4 4 4 4 5 6 6 6 6 7 6 9 17 19 20 21 22 22 22
6 8 8 7 7 8 7 6 4 4 4 4 4 5 6 5 4 4 3 3 3 3 4 3 4 3 3 4 5 6 5 6 7 7 7 6 8 16 21 23 24 24 24
6 8 7 5 6 7 6 5 3 3 4 3 3 3 5 5 5 4 3 3 4 3 3 3 3 3 4 4 4 5 5 5 8 8 7 7 6 7 14 22 24 25 26
7 8 7 6 5 6 6 4 3 3 2 2 2 2 3 3 4 3 3 3 3 3 3 3 3 3 4 4 5 5 5 6 6 7 8 9 9 8 7 15 23 25 26
7 8 8 6 4 6 5 4 3 2 1 1 1 2 2 2 3 3 2 3 3 3 3 3 4 4 4 5 6 7 6 6 7 8 10 9 8 9 9 9 10 14 24
7 7 7 6 5 5 4 3 3 2 2 1 2 2 3 3 4 3 3 3 3 3 4 4 4 5 4 3 4 5 6 9 11 11 10 9 9 9 9 9 7 7 9
7 7 7 7 6 5 4 3 2 2 1 1 1 1 2 2 3 3 3 3 3 3 5 5 4 4 4 3 2 3 5 5 6 8 7 8 9 7 7 9 8 8 7
7 6 6 7 7 6 5 4 2 2 1 1 1 1 2 2 2 2 3 3 3 4 4 5 5 5 4 4 4 4 4 5 5 4 5 5 5 5 6 6 8 9 9
6 6 7 7 7 5 4 4 3 2 1 1 1 1 2 2 2 2 2 3 3 3 4 5 5 4 5 4 4 5 6 5 4 6 4 4 5 6 7 7 8 8 9
6 6 6 7 6 5 4 4 3 2 1 1 1 0 1 1 2 2 2 2 3 3 4 5 5 5 4 5 5 4 6 5 7 8 9 6 6 7 8 9 8 8 10
6 5 6 6 6 5 4 4 4 3 2 2 2 2 2 1 1 1 2 2 3 4 5 5 5 6 6 6 6 5 5 5 6 7 10 9 9 6 7 6 7 7 7
Wind_Direction
136 151 160 153 150 148 145 140 132 123 114 107 102 97 93 89 86 82 78 74 70 67 64 63 61 61 62 62 62 62 62 62 61 62 61 61 63 62 60 59 57 49 54
140 150 160 155 153 152 149 143 136 129 120 113 109 103 98 94 89 84 79 75 69 66 65 63 62 62 63 63 63 63 64 63 63 63 63 58 61 62 61 60 60 57 57
139 148 160 157 156 155 153 147 141 136 128 122 116 111 106 99 93 87 81 76 72 68 65 63 61 61 62 63 63 63 63 60 58 61 61 50 53 62 61 60 59 58 57
141 148 160 159 159 158 156 152 146 143 137 130 122 117 114 106 99 93 88 81 76 71 68 67 65 63 63 62 61 60 59 54 48 58 49 42 43 61 60 58 57 57 57
141 149 160 160 161 161 160 156 152 150 145 140 133 127 122 114 106 99 93 86 80 75 71 68 66 64 62 62 59 56 50 38 31 50 47 46 40 57 59 56 55 55 56
144 149 157 162 164 164 163 160 156 155 152 147 141 136 130 123 116 109 101 94 86 79 74 69 66 64 61 59 56 49 34 19 25 45 42 40 32 51 58 55 52 50 51
148 147 155 165 167 167 166 165 161 160 158 153 150 146 140 134 126 120 115 107 98 89 79 72 67 62 59 55 51 42 22 5 23 48 53 47 32 46 51 50 46 46 45
146 144 154 168 169 170 170 169 166 165 164 162 159 156 151 145 139 136 131 123 114 102 90 80 70 63 57 53 45 34 13 355 353 14 60 58 36 36 41 38 34 33 34
142 141 150 166 169 173 174 172 171 171 170 169 168 165 162 158 156 153 150 145 139 127 112 96 79 64 53 44 34 18 356 333 326 330 36 66 25 9 15 16 7 5 6
140 144 150 163 168 171 172 175 174 175 175 175 173 169 168 169 171 171 167 170 168 165 163 160 143 81 2 338 324 319 314 313 293 289 312 128 353 319 316 310 307 310 312
148 151 152 164 167 168 170 175 173 176 178 177 172 167 163 170 178 182 186 183 187 196 207 217 227 241 252 253 250 250 272 264 275 273 250 214 257 278 283 283 278 277 279
170 170 159 163 163 166 172 166 170 172 171 174 171 167 172 185 187 182 178 184 196 211 226 235 240 248 250 238 232 233 239 244 253 247 228 233 248 261 267 271 272 269 267
172 173 167 162 161 163 162 158 166 166 166 180 183 174 178 185 174 159 153 175 198 214 226 234 234 229 229 226 199 207 230 247 252 257 244 246 250 257 261 264 266 267 265
160 165 169 159 155 158 157 159 162 160 163 172 183 177 174 174 180 170 172 180 191 199 209 212 208 226 228 229 221 224 235 232 231 237 245 252 254 257 260 261 262 263 263
151 156 166 158 151 152 152 158 162 163 166 172 177 182 182 172 180 191 193 198 203 202 203 209 222 239 240 237 234 233 238 241 239 233 237 248 254 257 260 261 261 261 260
147 150 157 159 151 147 151 159 164 165 165 171 172 183 192 186 188 195 200 205 212 213 216 215 225 236 239 237 239 239 240 240 242 240 233 245 251 254 257 260 261 261 260
142 140 149 159 152 151 158 166 166 170 166 169 169 184 192 195 199 199 204 212 217 220 226 229 242 253 258 257 256 254 250 246 244 243 241 232 240 249 253 257 259 260 260
120 125 130 137 148 151 159 163 156 165 161 162 167 182 199 201 203 207 209 218 225 225 225 227 233 250 257 256 254 252 249 247 245 243 241 239 232 236 248 253 257 259 260
110 112 117 127 151 147 147 140 133 129 129 139 158 180 200 212 215 214 217 224 233 239 238 235 233 235 255 265 265 262 257 254 253 251 247 242 237 235 233 250 256 261 263
102 111 119 127 136 122 119 116 108 103 111 136 170 194 207 224 231 229 230 239 246 250 250 242 245 247 247 255 271 273 267 262 260 257 254 249 242 239 236 239 247 256 260
100 110 119 123 120 114 111 120 127 151 177 192 205 216 218 222 229 225 227 239 244 245 246 245 247 257 262 261 281 289 274 255 251 251 248 246 243 239 236 236 235 236 252
106 109 112 115 111 104 108 112 116 120 126 128 151 200 239 242 236 224 219 226 236 243 251 251 247 254 260 242 239 300 308 305 268 253 246 240 240 236 236 239 239 238 237
98 103 107 105 102 102 109 107 101 95 98 157 195 196 227 238 243 239 238 238 245 239 245 246 240 241 252 251 209 211 255 273 312 302 292 275 259 247 245 244 242 240 237
101 101 104 105 106 110 116 114 130 136 139 149 152 181 228 209 205 224 245 254 257 254 255 254 243 237 238 251 251 227 225 230 268 294 285 285 292 279 269 261 253 246 240
114 110 111 110 109 110 106 104 97 84 80 70 51 55 305 238 182 202 223 254 265 261 260 261 263 252 237 236 236 241 251 251 241 258 277 272 265 257 259 257 254 250 245
122 119 119 116 115 113 110 107 95 83 52 37 16 6 337 317 265 233 216 242 257 258 258 258 256 255 250 248 245 237 236 240 244 250 267 272 270 263 260 263 265 262 256